Volver al catálogo

COSMOS 2440

ActivoNavegaciónGEO
NORAD 33108·PAYLOAD·🇷🇺 Russia

Lanzado Jun 27, 2008 desde Baikonur Cosmodrome

Loading…

TLE

ActualizadoSource: Space-Track

Época: Sep 14, 2026, 21:00 UTC

1 33108U 08033A   26257.87554720 -.00000120  00000-0  00000-0 0  9993
2 33108  10.7506  40.3424 0005458 191.3708 154.2797  1.00261009 66684

Sigue COSMOS 2440 en tiempo real con AllMySat

Download on the App Store